Total_Precipitation_Accumulation
0.18 0.19 0.16 0.13 0.12 0.13 0.15 0.18 0.27 0.40 0.63 0.85 1.08 1.19 1.29 1.36 1.26 1.14 1.07 0.96 0.82 0.76 0.70 0.60 0.53 0.48 0.43 0.40 0.35 0.29 0.25 0.24 0.25 0.26 0.26 0.26 0.26 0.25 0.25 0.25 0.23 0.22 0.19 0.16
0.16 0.17 0.18 0.17 0.16 0.14 0.19 0.23 0.34 0.53 0.80 1.05 1.21 1.23 1.27 1.33 1.24 1.19 1.17 1.14 1.10 1.04 0.94 0.81 0.65 0.56 0.50 0.45 0.41 0.36 0.35 0.36 0.36 0.35 0.33 0.32 0.31 0.30 0.30 0.27 0.24 0.19 0.15 0.12
0.15 0.14 0.22 0.35 0.28 0.23 0.29 0.34 0.44 0.63 0.78 0.95 1.08 1.19 1.18 1.18 1.23 1.28 1.39 1.44 1.36 1.19 1.04 0.91 0.79 0.71 0.65 0.58 0.54 0.51 0.50 0.47 0.42 0.37 0.36 0.33 0.30 0.31 0.29 0.24 0.19 0.15 0.12 0.08
0.15 0.19 0.37 0.42 0.27 0.28 0.41 0.49 0.51 0.58 0.62 0.78 0.94 1.02 1.06 1.11 1.21 1.30 1.35 1.31 1.20 1.03 0.91 0.86 0.85 0.81 0.71 0.63 0.58 0.55 0.53 0.49 0.40 0.32 0.29 0.28 0.29 0.27 0.21 0.16 0.15 0.13 0.10 0.07
0.22 0.31 0.44 0.51 0.31 0.30 0.44 0.57 0.51 0.56 0.56 0.68 0.74 0.81 0.96 1.05 1.13 1.23 1.19 1.10 1.04 0.97 0.92 0.93 0.90 0.81 0.72 0.65 0.58 0.53 0.48 0.38 0.29 0.23 0.23 0.22 0.20 0.17 0.15 0.15 0.14 0.09 0.06 0.07
0.35 0.42 0.54 0.55 0.28 0.25 0.44 0.75 0.59 0.62 0.60 0.61 0.67 0.83 0.87 0.88 0.87 0.92 0.93 0.96 0.99 1.05 1.09 1.03 0.90 0.73 0.63 0.55 0.46 0.39 0.31 0.24 0.20 0.18 0.14 0.13 0.13 0.13 0.13 0.13 0.11 0.07 0.05 0.06
0.49 0.62 0.65 0.33 0.16 0.29 0.62 0.70 0.59 0.62 0.65 0.64 0.67 0.71 0.60 0.61 0.70 0.78 0.86 0.91 0.94 0.94 0.92 0.84 0.72 0.62 0.57 0.47 0.37 0.27 0.20 0.16 0.13 0.10 0.08 0.07 0.10 0.12 0.12 0.10 0.10 0.08 0.07 0.08
0.57 0.69 0.74 0.31 0.20 0.38 0.47 0.40 0.42 0.48 0.52 0.51 0.51 0.52 0.54 0.56 0.61 0.69 0.79 0.84 0.81 0.75 0.70 0.59 0.48 0.46 0.45 0.37 0.25 0.17 0.13 0.10 0.08 0.06 0.04 0.05 0.10 0.11 0.11 0.12 0.11 0.09 0.09 0.08
0.67 0.76 0.56 0.30 0.26 0.29 0.34 0.35 0.35 0.40 0.42 0.44 0.47 0.51 0.59 0.65 0.67 0.67 0.65 0.66 0.60 0.51 0.45 0.38 0.32 0.32 0.31 0.24 0.16 0.12 0.11 0.10 0.08 0.06 0.06 0.05 0.09 0.11 0.10 0.10 0.09 0.07 0.07 0.08
0.58 0.64 0.46 0.30 0.25 0.24 0.25 0.27 0.30 0.38 0.42 0.41 0.41 0.41 0.46 0.52 0.55 0.53 0.49 0.45 0.39 0.33 0.28 0.24 0.20 0.19 0.16 0.12 0.11 0.13 0.13 0.11 0.10 0.11 0.11 0.08 0.08 0.06 0.07 0.07 0.06 0.07 0.08 0.10
0.65 0.65 0.51 0.41 0.29 0.25 0.28 0.29 0.34 0.38 0.37 0.34 0.30 0.28 0.28 0.30 0.32 0.30 0.27 0.24 0.21 0.19 0.16 0.13 0.10 0.09 0.08 0.07 0.08 0.12 0.12 0.10 0.09 0.10 0.11 0.11 0.09 0.04 0.03 0.04 0.02 0.04 0.07 0.09
0.77 0.63 0.50 0.48 0.39 0.33 0.33 0.30 0.27 0.24 0.24 0.26 0.26 0.25 0.24 0.24 0.23 0.20 0.16 0.14 0.12 0.11 0.09 0.07 0.05 0.04 0.03 0.03 0.05 0.11 0.11 0.09 0.07 0.07 0.07 0.08 0.13 0.10 0.02 0.01 0.01 0.02 0.03 0.05
0.49 0.40 0.37 0.36 0.36 0.39 0.31 0.24 0.21 0.17 0.14 0.17 0.20 0.20 0.18 0.18 0.16 0.12 0.10 0.09 0.08 0.07 0.05 0.04 0.03 0.02 0.02 0.02 0.03 0.06 0.09 0.07 0.05 0.05 0.05 0.07 0.12 0.17 0.15 0.08 0.04 0.04 0.03 0.04
0.37 0.39 0.42 0.32 0.26 0.25 0.18 0.16 0.14 0.12 0.10 0.11 0.13 0.13 0.12 0.11 0.09 0.07 0.06 0.04 0.03 0.02 0.01 0.01 0.01 0.02 0.01 0.01 0.02 0.03 0.06 0.04 0.03 0.05 0.05 0.07 0.09 0.11 0.13 0.16 0.18 0.17 0.09 0.04
0.32 0.31 0.29 0.20 0.14 0.13 0.10 0.08 0.08 0.09 0.09 0.10 0.09 0.08 0.08 0.07 0.06 0.04 0.02 0.01 0.01 0.01 0.01 0.01 0.02 0.02 0.01 0.00 0.01 0.03 0.05 0.07 0.05 0.04 0.04 0.05 0.06 0.08 0.09 0.11 0.15 0.16 0.15 0.10
0.22 0.18 0.13 0.11 0.11 0.11 0.10 0.08 0.06 0.07 0.07 0.07 0.07 0.07 0.05 0.03 0.03 0.02 0.02 0.01 0.01 0.02 0.01 0.01 0.01 0.01 0.01 0.01 0.02 0.04 0.03 0.01 0.02 0.02 0.02 0.03 0.04 0.05 0.07 0.09 0.13 0.17 0.17 0.14
0.15 0.14 0.12 0.10 0.09 0.10 0.09 0.07 0.06 0.05 0.05 0.06 0.05 0.03 0.02 0.02 0.02 0.02 0.01 0.01 0.00 0.00 0.01 0.01 0.01 0.00 0.00 0.01 0.01 0.02 0.03 0.01 0.01 0.01 0.02 0.03 0.03 0.03 0.05 0.08 0.12 0.16 0.16 0.13
0.08 0.08 0.08 0.07 0.05 0.05 0.04 0.04 0.03 0.03 0.03 0.02 0.02 0.01 0.02 0.02 0.02 0.01 0.00 0.00 0.00 0.00 0.00 0.00 0.00 0.00 0.00 0.00 0.00 0.01 0.01 0.01 0.01 0.01 0.01 0.01 0.01 0.02 0.04 0.06 0.08 0.12 0.14 0.15
0.05 0.04 0.04 0.03 0.02 0.02 0.02 0.02 0.02 0.01 0.01 0.01 0.01 0.01 0.01 0.01 0.01 0.00 0.00 0.00 0.00 0.01 0.01 0.00 0.00 0.00 0.00 0.00 0.00 0.00 0.00 0.00 0.00 0.01 0.00 0.00 0.01 0.02 0.03 0.05 0.07 0.08 0.11 0.14
0.03 0.02 0.02 0.02 0.02 0.02 0.02 0.01 0.01 0.00 0.01 0.02 0.02 0.00 0.00 0.00 0.00 0.00 0.00 0.00 0.00 0.00 0.00 0.00 0.00 0.00 0.00 0.00 0.00 0.00 0.00 0.00 0.00 0.00 0.00 0.00 0.01 0.01 0.02 0.03 0.04 0.07 0.09 0.13
0.03 0.02 0.01 0.01 0.01 0.01 0.01 0.01 0.01 0.01 0.01 0.02 0.01 0.00 0.00 0.00 0.00 0.00 0.00 0.01 0.01 0.00 0.00 0.00 0.00 0.00 0.00 0.00 0.00 0.00 0.00 0.00 0.00 0.00 0.00 0.00 0.01 0.01 0.01 0.02 0.02 0.04 0.06 0.08
0.03 0.02 0.01 0.01 0.01 0.01 0.01 0.02 0.01 0.01 0.02 0.02 0.01 0.00 0.00 0.00 0.00 0.00 0.00 0.00 0.01 0.00 0.00 0.00 0.00 0.00 0.00 0.00 0.00 0.00 0.00 0.00 0.00 0.00 0.00 0.00 0.00 0.01 0.01 0.01 0.01 0.02 0.03 0.04
0.07 0.04 0.02 0.01 0.01 0.02 0.02 0.02 0.02 0.02 0.02 0.01 0.00 0.00 0.00 0.00 0.00 0.00 0.00 0.00 0.00 0.00 0.00 0.00 0.00 0.00 0.00 0.00 0.00 0.00 0.00 0.00 0.00 0.00 0.00 0.00 0.00 0.00 0.00 0.00 0.01 0.01 0.01 0.02
0.09 0.06 0.04 0.03 0.02 0.02 0.03 0.02 0.03 0.03 0.01 0.01 0.00 0.00 0.00 0.00 0.00 0.00 0.00 0.00 0.00 0.00 0.00 0.00 0.00 0.00 0.00 0.00 0.00 0.00 0.00 0.00 0.00 0.00 0.00 0.00 0.00 0.00 0.00 0.00 0.00 0.00 0.01 0.01
0.11 0.08 0.06 0.05 0.06 0.05 0.04 0.03 0.03 0.02 0.01 0.00 0.00 0.00 0.00 0.00 0.00 0.00 0.00 0.00 0.00 0.00 0.00 0.00 0.00 0.00 0.00 0.00 0.00 0.00 0.00 0.00 0.00 0.00 0.00 0.00 0.00 0.00 0.00 0.00 0.00 0.00 0.00 0.00
0.16 0.14 0.11 0.09 0.08 0.06 0.03 0.03 0.03 0.01 0.00 0.00 0.00 0.00 0.00 0.00 0.00 0.00 0.00 0.00 0.00 0.00 0.00 0.00 0.00 0.00 0.00 0.00 0.00 0.00 0.00 0.00 0.00 0.00 0.00 0.00 0.00 0.00 0.00 0.00 0.00 0.00 0.00 0.00
0.22 0.16 0.13 0.09 0.06 0.03 0.02 0.02 0.01 0.00 0.00 0.00 0.00 0.00 0.00 0.00 0.00 0.00 0.00 0.00 0.00 0.00 0.00 0.00 0.00 0.00 0.00 0.00 0.00 0.00 0.00 0.00 0.00 0.00 0.00 0.00 0.00 0.00 0.00 0.00 0.00 0.00 0.00 0.00